Location: Newark
(7.6833°N, 5.0167°W)
Time: 08:59:28
(UTC+00:00)

LightSail 2 - Visible Passes

Search period start: 29 January 2020 00:00
Search period end: 08 February 2020 00:00
Orbit: 704 x 719 km, 24.0° (Epoch: 28 January)

Date Brightness Start Highest point End Pass type
(mag) Time Alt. Az. Time Alt. Az. Time Alt. Az.
29 Jan 5.7 20:21:16 10° WNW 20:25:09 52° WNW 20:25:09 52° WNW visible
30 Jan 5.2 19:22:50 10° WNW 19:27:53 59° NNE 19:30:52 24° E visible
30 Jan 7.7 21:08:37 10° W 21:09:52 17° W 21:09:52 17° W visible
31 Jan 5.6 20:09:49 10° WNW 20:14:51 54° SSW 20:15:39 49° S visible
01 Feb 5.2 19:11:11 10° WNW 19:16:19 80° SSW 19:21:29 10° ESE visible
01 Feb 7.5 20:57:56 10° WSW 21:00:29 19° SW 21:00:29 19° SW visible
02 Feb 6.7 19:58:44 10° W 20:03:13 30° SSW 20:06:20 17° SSE visible
03 Feb 6.2 18:59:48 10° W 19:04:40 44° SSW 19:09:34 10° SE visible
03 Feb 7.8 20:48:22 10° SW 20:50:14 12° SSW 20:51:09 11° SSW visible
04 Feb 7.8 05:41:54 10° S 05:44:38 14° SSE 05:47:21 10° ESE visible
04 Feb 7.6 19:48:15 10° WSW 19:51:36 17° SSW 19:54:58 10° SSE visible
05 Feb 7.2 18:48:50 10° W 18:53:00 25° SSW 18:57:10 10° SSE visible
06 Feb 7.1 05:28:47 10° SSW 05:33:00 25° SSE 05:37:12 10° E visible
07 Feb 7.4 04:32:49 15° S 04:34:22 17° SSE 04:37:46 10° ESE visible
07 Feb 5.6 06:14:44 10° WSW 06:19:52 65° SSE 06:24:58 10° ENE visible
